Wind_Speed
18 18 18 18 18 18 19 20 19 19 19 19 20 20 20 20 20 20 20 20 20 21 21 21 21 21 20 21 21 21 21 21 21 21 21 21 21 21 22 22 22 23 23
20 19 19 19 19 19 20 20 21 21 20 20 21 21 21 22 22 22 21 21 21 22 22 22 22 22 22 22 22 22 22 22 23 23 23 22 22 22 23 24 24 24 24
21 20 20 20 20 20 20 21 21 22 21 20 20 21 22 22 23 23 23 23 23 23 23 24 24 25 25 24 24 24 25 25 24 25 25 24 24 24 24 24 25 25 25
21 22 22 21 21 21 21 21 22 22 22 22 21 22 22 23 24 24 25 25 25 25 25 25 25 26 26 27 27 26 26 26 26 26 26 26 26 25 25 25 25 26 26
23 23 23 22 22 22 22 22 22 22 23 23 23 24 24 24 25 26 26 26 27 27 26 26 26 26 27 28 28 28 28 27 27 27 27 27 27 26 26 26 27 27 27
24 24 23 23 24 23 23 23 23 23 24 23 24 25 25 26 26 26 27 27 28 27 27 27 27 27 28 28 28 28 28 28 27 27 27 27 26 27 26 26 27 27 27
25 24 24 24 24 24 24 24 24 24 25 25 25 25 25 26 27 27 27 28 28 28 27 27 28 28 27 28 28 28 28 28 28 28 27 26 26 26 26 26 26 27 27
25 25 25 25 25 26 25 25 25 26 26 26 26 26 26 26 27 27 28 28 28 28 28 28 28 28 28 27 27 28 28 28 28 28 28 27 27 27 27 27 27 27 27
26 26 26 26 26 26 26 26 25 26 26 26 26 26 26 26 27 27 27 28 28 28 28 28 28 28 28 28 28 28 28 27 28 29 28 28 28 28 28 28 28 28 27
26 26 26 26 26 27 26 26 26 27 26 26 26 26 27 27 28 29 29 29 29 28 28 28 28 28 28 28 29 29 29 28 28 28 28 28 28 28 28 28 28 28 27
26 26 26 27 27 27 27 27 27 27 27 26 27 27 27 28 28 28 29 29 29 29 29 29 29 29 29 29 29 29 29 29 29 29 28 28 29 28 28 28 28 28 28
26 27 27 27 27 28 28 28 28 27 27 27 27 27 27 28 28 28 29 29 29 30 29 30 30 30 30 30 30 29 29 29 29 29 29 29 29 29 29 28 29 29 28
27 27 27 27 27 28 28 28 28 27 27 27 27 27 28 28 28 28 28 28 29 29 29 29 29 29 29 29 29 29 29 28 28 29 28 28 28 29 29 30 30 29 29
28 28 27 28 28 28 28 28 28 28 28 28 29 29 29 29 29 29 29 29 28 29 29 28 28 28 29 28 28 28 29 29 28 28 28 28 28 28 28 29 29 29 28
29 29 29 28 28 28 29 29 29 29 29 29 30 30 30 29 29 29 29 29 28 28 29 28 28 28 28 28 28 29 29 28 28 28 28 28 28 28 28 28 28 28 28
29 29 29 28 29 29 29 30 30 30 30 30 30 30 30 30 30 30 29 28 28 29 29 29 29 28 28 27 27 27 28 28 28 27 27 27 28 28 28 28 28 28 27
29 29 29 29 29 30 30 30 30 30 30 31 31 30 30 30 30 29 29 28 28 28 29 29 29 28 27 27 27 26 27 27 27 27 27 26 27 27 27 27 27 27 27
30 29 29 30 30 30 30 30 30 30 30 30 31 31 30 30 30 29 29 29 29 28 28 28 28 28 27 27 27 27 26 26 26 26 26 26 26 27 27 26 26 26 26
29 29 29 29 30 30 30 30 30 30 30 30 30 30 29 29 29 29 29 29 28 28 28 28 28 28 27 27 27 27 27 26 26 27 27 26 26 26 26 26 27 27 26
28 28 29 29 29 29 30 30 30 30 30 29 28 28 28 28 28 28 28 28 27 27 27 27 27 27 27 27 27 27 27 27 27 27 28 27 27 26 26 27 27 27 27
27 27 28 28 28 28 28 29 29 28 29 29 28 27 27 27 27 27 26 26 26 26 26 26 26 26 26 27 27 27 26 26 27 27 28 28 28 27 27 27 27 28 28
27 27 27 27 27 27 27 27 27 27 27 27 26 26 26 26 26 26 26 25 25 25 25 25 25 25 25 26 27 26 26 26 27 27 27 28 28 28 28 28 28 28 28
27 27 27 27 27 27 27 26 26 26 27 26 26 26 26 25 25 25 25 24 24 25 25 24 24 24 24 25 26 26 25 26 27 27 27 28 28 28 28 28 28 29 28
27 27 27 27 26 26 26 26 25 25 25 25 25 25 25 25 25 25 24 24 24 24 24 24 25 25 25 26 26 25 25 25 26 26 27 27 28 28 28 28 28 29 29
27 27 27 26 26 26 25 25 24 24 24 24 24 24 24 24 24 24 24 24 24 25 25 25 26 27 27 27 26 26 25 25 26 26 26 27 27 27 28 28 28 28 28
26 26 26 26 26 25 25 24 24 24 24 24 24 24 23 23 24 24 24 24 25 25 25 25 26 27 27 27 26 26 26 25 26 26 26 26 26 27 27 28 28 28 28
Wind_Direction
290 287 283 280 281 280 281 279 278 274 271 268 267 266 266 266 265 265 266 265 267 268 267 267 267 266 265 265 266 266 266 265 263 264 263 262 263 262 259 258 257 256 256
288 286 283 280 281 282 281 280 278 276 275 271 268 266 265 265 265 266 267 267 268 268 268 267 267 266 266 266 266 266 267 266 265 264 264 264 264 263 262 260 259 259 258
288 286 283 282 282 282 281 281 279 278 277 273 269 267 265 266 266 266 267 268 268 269 269 269 268 267 267 267 267 267 267 267 267 266 265 265 264 264 263 263 262 260 259
288 285 283 283 282 281 281 281 279 277 276 272 270 269 267 267 266 267 268 269 270 270 271 270 269 269 267 266 266 267 267 267 267 267 267 264 263 263 262 262 262 261 259
289 286 284 281 280 280 280 280 279 278 277 274 272 270 269 268 268 268 269 270 271 271 271 271 269 269 268 267 267 266 267 267 267 267 266 264 263 263 263 262 262 262 260
287 286 283 281 279 279 280 280 279 279 278 276 275 274 272 270 269 270 270 270 271 271 271 271 270 269 268 267 267 267 266 266 266 267 266 264 262 263 263 263 262 262 261
286 285 283 281 280 280 281 281 280 280 280 279 277 276 274 273 271 270 270 270 270 270 271 271 270 269 269 268 267 266 266 266 266 267 265 263 262 263 264 263 262 261 261
286 285 283 283 282 282 281 281 280 280 280 280 279 278 277 275 273 272 272 270 270 270 271 271 269 269 269 269 267 266 266 266 265 265 264 263 263 263 263 263 262 261 261
284 284 284 283 283 282 282 282 282 281 279 279 279 280 280 277 274 273 274 271 270 270 270 270 270 269 269 268 268 267 266 265 265 265 264 264 264 263 262 263 263 262 261
283 283 283 283 283 282 282 283 283 281 280 279 279 279 279 278 275 273 273 273 271 270 269 270 270 270 269 269 269 268 267 267 266 265 263 264 263 263 262 262 263 262 260
282 283 282 283 283 282 282 283 283 282 281 279 279 279 279 278 278 275 273 272 272 270 269 269 270 269 269 269 269 269 268 267 267 264 262 263 264 263 262 262 262 261 262
282 282 282 282 282 281 282 283 282 281 280 280 280 280 280 279 278 277 275 274 272 271 270 269 270 269 269 269 268 268 268 267 264 262 262 262 262 261 260 260 261 261 262
283 283 282 281 282 282 282 282 281 281 281 281 281 281 281 280 280 278 276 275 274 270 269 270 270 269 268 268 267 267 267 266 264 262 262 262 261 261 259 259 259 259 260
282 283 282 282 281 281 282 282 281 281 283 283 283 282 282 281 281 279 276 274 273 271 269 269 269 269 268 267 266 265 265 265 264 263 261 262 260 259 259 258 258 258 258
281 282 283 282 281 281 281 282 282 281 282 283 283 283 282 281 280 279 277 275 274 272 270 269 269 270 270 268 266 265 265 264 263 263 261 260 259 259 259 258 257 257 257
281 282 282 282 281 281 281 281 282 282 282 283 282 282 280 279 278 277 275 274 272 271 269 268 268 268 269 268 266 264 264 262 261 261 261 259 258 258 258 258 259 258 257
282 282 282 282 281 281 281 281 282 283 283 283 284 282 279 278 278 276 275 274 272 271 270 269 267 267 267 266 264 263 263 262 260 260 259 259 258 258 257 258 258 259 258
284 284 283 283 283 282 282 282 283 284 283 283 283 282 279 278 277 276 274 273 273 271 270 270 268 265 264 264 264 262 262 262 260 259 259 260 259 258 256 257 257 257 258
286 286 287 286 285 283 282 283 284 284 284 284 283 282 279 278 277 276 274 273 273 273 271 270 269 266 263 263 263 262 261 261 261 259 259 259 258 257 257 257 257 258 259
286 287 288 288 286 284 282 282 282 283 284 284 282 280 280 278 277 276 275 274 274 274 273 271 269 265 263 261 261 260 260 259 259 258 259 258 258 257 258 258 258 258 259
285 286 287 287 287 285 283 281 280 281 282 281 282 281 279 279 278 276 274 273 273 273 273 273 270 265 262 261 261 260 260 259 258 258 258 258 259 259 259 259 258 259 259
284 286 286 287 287 287 286 283 282 282 282 281 281 281 281 280 278 276 274 273 272 272 272 272 270 267 263 261 261 260 259 258 258 258 257 257 258 259 259 259 258 258 259
285 287 288 288 289 290 287 285 283 282 281 281 281 280 279 279 276 274 273 273 272 271 272 270 268 268 266 262 261 259 259 259 259 259 259 259 259 259 258 259 260 258 259
286 287 288 289 290 291 289 285 283 282 280 280 280 279 279 278 276 274 272 272 273 273 272 269 268 269 267 265 262 260 260 261 260 259 260 260 260 260 260 259 260 258 258
288 288 288 288 289 290 289 286 283 281 279 279 279 279 280 278 277 274 272 272 273 274 272 268 268 268 266 265 263 262 261 262 261 261 261 261 261 260 260 260 260 259 259
288 287 286 287 287 288 287 286 284 281 280 279 278 278 279 279 278 276 275 274 274 275 273 270 269 268 266 264 263 262 262 262 262 262 262 262 261 260 260 260 260 261 261
Height
5792 5790 5789 5788 5786 5786 5785 5784 5783 5782 5782 5781 5781 5781 5781 5781 5781 5781 5781 5781 5780 5780 5780 5779 5779 5779 5779 5778 5778 5778 5778 5777 5777 5777 5777 5776 5776 5776 5776 5776 5777 5777 5778
5786 5785 5783 5782 5781 5780 5779 5778 5777 5776 5776 5775 5775 5775 5774 5774 5774 5774 5774 5774 5774 5774 5773 5773 5773 5773 5772 5772 5772 5772 5771 5771 5771 5771 5770 5770 5769 5769 5769 5769 5770 5770 5771
5781 5779 5778 5777 5776 5774 5773 5772 5772 5771 5770 5769 5769 5768 5768 5768 5768 5768 5768 5768 5767 5767 5767 5766 5766 5766 5765 5765 5765 5764 5764 5764 5764 5764 5763 5763 5762 5762 5762 5762 5763 5763 5764
5775 5774 5772 5771 5769 5768 5767 5766 5765 5764 5763 5762 5762 5762 5761 5761 5761 5761 5761 5760 5760 5760 5759 5759 5758 5758 5758 5757 5757 5757 5756 5756 5756 5756 5755 5755 5755 5755 5755 5755 5755 5755 5756
5769 5767 5766 5764 5763 5761 5760 5759 5758 5758 5757 5756 5755 5755 5754 5754 5754 5753 5753 5753 5752 5752 5751 5750 5750 5750 5749 5749 5749 5748 5748 5748 5747 5747 5747 5747 5747 5746 5747 5747 5747 5747 5748
5762 5760 5759 5757 5756 5755 5754 5753 5752 5750 5749 5748 5748 5747 5746 5746 5746 5745 5745 5744 5744 5743 5742 5742 5741 5741 5740 5740 5740 5739 5739 5739 5739 5738 5738 5738 5738 5738 5738 5738 5738 5739 5740
5755 5753 5752 5750 5749 5748 5747 5746 5744 5743 5742 5741 5740 5739 5738 5738 5737 5737 5736 5735 5735 5734 5734 5733 5733 5732 5731 5731 5730 5730 5730 5729 5730 5730 5730 5729 5730 5730 5730 5730 5730 5730 5731
5748 5746 5744 5743 5742 5741 5740 5738 5737 5735 5734 5733 5732 5731 5730 5729 5728 5728 5727 5726 5726 5725 5724 5724 5723 5723 5722 5722 5721 5721 5721 5721 5721 5721 5721 5721 5721 5721 5721 5721 5720 5721 5722
5740 5739 5737 5735 5734 5733 5731 5730 5729 5727 5726 5725 5724 5722 5721 5720 5720 5719 5718 5717 5717 5716 5716 5715 5714 5714 5714 5713 5713 5712 5712 5712 5712 5712 5712 5712 5712 5712 5712 5712 5712 5712 5713
5732 5731 5729 5728 5726 5725 5724 5722 5721 5719 5718 5716 5715 5714 5713 5712 5711 5710 5709 5708 5708 5707 5706 5706 5705 5705 5704 5704 5703 5703 5703 5703 5703 5703 5703 5703 5703 5703 5703 5703 5704 5704 5704
5724 5722 5721 5719 5718 5716 5715 5714 5712 5711 5709 5708 5707 5705 5704 5703 5701 5700 5699 5698 5698 5697 5697 5696 5696 5696 5695 5694 5694 5694 5693 5693 5693 5693 5693 5693 5693 5693 5694 5694 5695 5695 5696
5716 5714 5712 5711 5709 5708 5706 5705 5703 5702 5700 5699 5698 5696 5695 5693 5692 5691 5690 5689 5688 5688 5687 5687 5686 5686 5685 5685 5684 5684 5683 5683 5683 5683 5683 5683 5684 5684 5685 5685 5686 5686 5687
5707 5705 5703 5702 5700 5699 5697 5696 5694 5693 5691 5690 5689 5687 5686 5684 5682 5681 5680 5679 5678 5678 5677 5677 5676 5676 5675 5675 5674 5674 5674 5673 5673 5673 5673 5674 5674 5675 5675 5676 5677 5677 5678
5698 5696 5695 5693 5691 5690 5688 5687 5685 5684 5682 5681 5679 5678 5676 5674 5673 5672 5670 5669 5668 5668 5668 5667 5667 5666 5665 5665 5665 5664 5664 5664 5664 5664 5664 5665 5665 5665 5666 5667 5668 5669 5669
5688 5687 5685 5683 5682 5680 5679 5677 5676 5675 5673 5671 5670 5668 5666 5665 5663 5662 5660 5660 5659 5658 5658 5658 5657 5657 5656 5655 5655 5655 5654 5654 5654 5654 5655 5656 5656 5657 5658 5658 5659 5660 5661
5679 5677 5676 5674 5672 5670 5669 5667 5665 5664 5663 5661 5659 5658 5656 5655 5653 5652 5651 5649 5649 5648 5647 5647 5647 5647 5647 5646 5646 5645 5645 5645 5645 5646 5646 5647 5648 5648 5649 5650 5650 5651 5652
5669 5668 5666 5664 5662 5660 5659 5657 5656 5654 5652 5651 5649 5647 5646 5645 5643 5642 5641 5640 5639 5638 5637 5637 5637 5637 5637 5637 5637 5636 5636 5636 5636 5637 5638 5638 5639 5640 5641 5641 5642 5643 5644
5660 5658 5656 5654 5652 5650 5649 5647 5645 5644 5642 5640 5638 5637 5635 5634 5633 5632 5631 5630 5629 5628 5628 5627 5627 5627 5627 5627 5627 5627 5627 5627 5628 5628 5629 5630 5630 5631 5632 5633 5634 5634 5635
5651 5649 5646 5644 5642 5640 5638 5637 5635 5634 5632 5630 5629 5627 5625 5624 5623 5622 5621 5620 5619 5619 5618 5618 5618 5617 5617 5618 5618 5618 5618 5619 5619 5619 5620 5621 5622 5622 5623 5624 5625 5626 5627
5641 5639 5637 5634 5632 5630 5628 5627 5625 5624 5622 5621 5619 5617 5616 5614 5613 5612 5611 5610 5610 5609 5608 5608 5608 5608 5608 5608 5608 5609 5609 5609 5610 5611 5611 5612 5613 5614 5615 5616 5616 5617 5618
5632 5630 5627 5625 5623 5620 5618 5617 5615 5614 5613 5611 5610 5608 5607 5605 5604 5603 5602 5601 5601 5600 5600 5599 5599 5598 5598 5599 5599 5600 5600 5600 5601 5602 5602 5603 5604 5605 5606 5606 5607 5608 5609
5622 5621 5618 5616 5613 5611 5609 5607 5605 5604 5603 5601 5600 5599 5598 5596 5595 5594 5594 5593 5592 5591 5591 5590 5590 5590 5590 5590 5590 5590 5591 5591 5592 5593 5593 5594 5595 5596 5596 5597 5598 5599 5600
5613 5611 5609 5607 5604 5602 5599 5597 5596 5595 5593 5592 5591 5590 5589 5588 5587 5586 5585 5584 5583 5583 5582 5582 5581 5581 5581 5581 5581 5581 5582 5582 5583 5584 5584 5585 5586 5586 5587 5588 5589 5590 5591
5604 5602 5600 5597 5595 5593 5591 5589 5587 5586 5584 5583 5582 5581 5580 5579 5578 5577 5576 5576 5575 5574 5573 5573 5573 5573 5572 5572 5572 5572 5573 5573 5574 5574 5575 5575 5576 5577 5578 5578 5579 5580 5581
5594 5592 5590 5588 5586 5584 5582 5580 5579 5577 5576 5575 5574 5573 5571 5570 5569 5568 5567 5567 5566 5565 5565 5564 5564 5564 5563 5563 5563 5564 5564 5564 5564 5565 5565 5566 5567 5567 5568 5569 5570 5571 5571
5585 5583 5581 5579 5578 5576 5574 5572 5571 5569 5568 5566 5565 5564 5563 5562 5561 5560 5559 5558 5557 5556 5555 5555 5555 5554 5554 5554 5554 5554 5555 5555 5556 5556 5556 5557 5557 5558 5559 5560 5560 5561 5562